Tracking 25734 objects as of 28-May-2022
HD Live streaming from Space Station
objects crossing your sky now

RAX-2

Track RAX-2 now!
10-day predictions
RAX-2 is classified as:


NORAD ID: 37853
Int'l Code: 2011-061D
Perigee: 439.8 km
Apogee: 654.2 km
Inclination: 101.7 °
Period: 95.4 minutes
Semi major axis: 6918 km
RCS: 0.0758 m2 (small)
Launch date: October 28, 2011
Source: United States (US)
Launch site: AIR FORCE WESTERN TEST RANGE (AFWTR)

Uplink (MHz):
Downlink (MHz): 437.345
Beacon (MHz):
Mode: 9600bps GMSK
Call sign:
Status: Inactive

aabbcc
Your satellite tracking list
Your tracking list is empty




NASA's NSSDC Master Catalog

Two Line Element Set (TLE):
1 37853U 11061D   22147.79581835  .00013317  00000-0  64497-3 0  9995
2 37853 101.7053 241.5179 0154954 148.9027 212.1472 15.08791344577575
Source of the keplerian elements: AFSPC